Location: Geroldsau
(48.7259°N, 8.2466°E)
Time: 15:40:36
(UTC+00:00)

Cosmos 1437 - Pass Details

Date: 20 June 2021
Orbit: 332 x 333 km, 81.1° (Epoch: 04 August)

Event Time Altitude Azimuth Distance (km) Brightness Sun altitude
Rises 01:44:09 0° 337° (NNW) 2,150 6.9 -11.7°
Reaches altitude 10° 01:46:16 10° 324° (NW) 1,307 5.5 -11.6°
Maximum altitude 01:48:41 25° 266° (W) 740 3.7 -11.3°
Enters shadow 01:49:48 20° 228° (SW) 893 3.8 -11.2°
